Погода в Болхунах

Россия / Астраханская область     47°59′17″N   46°25′19″E
темп.,
°C
ветер,
м/с
пор.,
м/с
влажн.,
%
обл.,
%
осадки,
мм/ч
давл.,
гПа
погр.,
м
19 сентября, вс
вс1901:00+12в59465 0.0 1020235
04:00+12в510495 0.0 1021237
07:00+11вюв5105332 0.0 1021241
10:00+17вюв6738100 0.0 1021615
13:00+21вюв772950 0.0 10201496
16:00+22вюв77295 0.0 10191853
19:00+19вюв6103768 0.0 1018305
22:00+16вюв612425 0.0 1019368
20 сентября, пн
пн2001:00+14вюв4115574 0.0 1018283
04:00+13вюв51261100 0.0 1017293
07:00+14вюв41153100 0.0 1016371
10:00+17юв5740100 0.0 1016496
13:00+20юв5837100 0.0 1015788
16:00+24ююв563199 0.0 10131380
19:00+20юз224311 0.0 101311
22:00+20ююв334685 0.1 101334
21 сентября, вт
вт2101:00+17ююз345721 0.0 101457
04:00+17юз33705 0.1 101434
07:00+16юз2274100 0.0 101413
10:00+22ююз344744 0.0 1015462
13:00+27ююз4628100 0.0 10132195
16:00+27ююз5629100 0.0 10122574
19:00+24ю3442100 0.1 101180
22:00+20юв4556100 0.3 101069
22 сентября, ср
ср2201:00+19ю51150100 0.1 1011355
04:00+16ссв4487100 0.9 1010153
07:00+16юз468494 0.3 1012427
10:00+17з4580100 0.3 1013518
13:00+18з4564100 0.0 1013948
16:00+20зсз5448100 0.0 10131315
19:00+17зсз2355100 0.1 101465
22:00+14ююв3483100 0.1 1016173
23 сентября, чт
чт2301:00+14ююз2286100 0.0 101687
04:00+15ссз1179100 0.1 1015126
07:00+14ссз3373100 0.6 1015180
10:00+15св347389 0.7 1015302
13:00+22в453850 0.0 10131506
16:00+24в783437 0.0 10121843
19:00+20вюв91240100 0.0 1012633
22:00+20в71531100 0.0 1010775